Wind_Speed
22 21 18 19 20 20 18 21 30 32 29 25 22 22 22 21 20 20 18 16 16 16 15 15 14 14 13 12 13 13 15 15 15 15 15 14 14 13 13 12 12 12 11 11 10 9 10 10 10 9 8 8 8 9 9 10 10 11 11 10 11 10 10 9 8 9 12 13 14 15 18 20 20 20 24 26 28 27 26 24 23 23 25 28 30
24 21 18 20 21 20 19 26 33 33 29 25 24 24 24 22 21 19 18 17 16 16 16 15 14 14 13 12 13 14 16 16 15 15 15 15 14 13 12 12 12 12 11 10 9 8 9 10 9 8 8 8 9 9 9 9 9 10 10 10 10 9 9 9 9 10 12 14 15 17 18 20 20 21 23 26 28 28 26 24 23 23 24 28 30
24 21 19 20 20 20 23 30 34 33 29 26 25 26 25 22 20 19 18 17 16 15 15 15 14 13 13 13 14 15 16 16 15 16 16 15 14 13 12 12 12 11 10 10 9 9 9 9 8 8 8 8 9 9 9 8 9 9 8 8 8 8 7 8 9 11 13 14 16 17 19 20 20 21 23 24 26 27 26 24 23 23 25 28 29
22 20 20 21 20 22 26 30 33 33 29 27 27 26 24 21 19 18 17 17 16 16 15 15 14 13 13 14 15 16 16 16 16 16 15 14 14 13 12 11 11 10 10 9 9 9 8 8 8 8 8 8 9 9 9 9 8 9 8 7 8 8 7 8 9 10 12 14 15 17 18 19 20 21 23 24 25 26 26 25 23 23 25 28 29
21 21 21 21 21 23 26 29 33 32 28 28 28 26 24 23 20 18 17 17 17 16 16 15 14 13 13 14 15 16 17 17 16 15 15 14 13 13 12 11 11 10 10 9 9 8 8 8 8 8 8 9 8 8 9 9 8 8 8 8 8 8 8 9 10 10 12 13 15 16 17 18 20 21 23 25 25 25 25 26 24 22 25 28 29
22 22 22 22 23 23 24 27 32 32 29 29 29 27 26 24 21 18 17 17 17 16 16 14 13 13 14 15 16 17 17 16 16 15 14 13 13 12 12 11 11 10 10 9 9 8 8 8 8 9 9 9 9 8 8 7 7 8 8 9 9 9 9 10 11 12 12 13 15 16 17 18 20 21 23 25 26 25 26 27 25 23 25 28 31
22 22 23 23 24 24 24 27 32 31 29 29 28 27 27 24 20 17 16 17 17 16 15 14 13 14 15 16 17 17 17 16 15 15 14 13 13 12 12 11 10 10 10 9 9 8 8 9 9 9 9 9 8 8 7 6 6 8 8 9 10 10 11 11 12 12 12 13 14 16 17 18 19 21 23 24 24 24 25 26 25 26 27 28 31
22 23 24 23 24 27 27 29 30 28 26 28 29 27 26 23 19 16 16 16 16 16 15 15 14 14 15 16 17 17 17 16 15 15 14 13 13 12 12 11 10 10 10 9 9 8 9 9 9 9 10 11 10 10 8 6 5 7 9 9 10 11 11 11 12 13 13 13 14 15 17 18 19 21 23 25 24 24 25 24 24 26 28 29 29
23 22 22 22 24 29 31 30 27 26 27 29 28 27 25 22 18 16 16 16 16 15 15 15 15 15 16 17 17 17 16 15 14 14 14 13 13 12 11 11 10 10 10 9 9 9 9 9 10 11 12 13 12 11 11 9 8 7 8 9 10 11 12 12 12 13 13 13 14 16 17 18 20 22 24 25 25 25 25 23 22 24 26 28 28
21 20 20 21 25 29 31 29 26 27 29 29 28 27 25 20 17 16 16 16 15 15 15 15 15 16 17 17 17 16 15 14 16 16 14 13 12 11 11 10 9 10 9 9 9 9 9 9 10 12 12 12 12 11 10 10 10 9 9 10 11 11 12 12 12 13 13 13 14 16 17 17 19 22 23 24 25 25 24 23 22 23 25 26 25
19 18 19 23 27 30 30 29 27 28 28 28 28 26 22 18 16 16 16 16 16 15 15 15 15 16 17 17 17 16 14 17 21 20 17 15 12 11 10 10 9 9 9 9 9 9 8 8 8 9 9 8 8 9 9 9 10 10 10 11 12 12 12 12 12 12 13 13 14 15 16 17 19 20 22 23 25 25 24 22 23 24 25 25 23
21 20 22 25 29 31 30 29 28 29 29 28 26 22 19 18 17 16 16 16 16 16 15 15 15 16 17 18 17 15 15 21 24 22 19 17 13 10 9 9 9 8 8 8 8 8 8 8 7 8 8 7 5 5 6 8 8 9 10 11 12 13 12 12 11 11 11 12 13 15 16 16 18 19 22 23 24 25 23 22 23 23 24 24 23
25 23 24 26 29 31 31 30 30 30 28 24 21 19 19 18 17 16 17 17 16 16 16 15 16 16 17 18 17 16 19 24 23 20 20 18 14 11 9 8 8 8 8 8 8 8 7 7 7 7 8 8 5 3 3 4 5 7 9 9 10 13 14 13 12 12 11 11 12 14 15 15 16 18 21 22 23 23 22 22 23 22 22 22 23
27 26 25 25 30 32 31 31 30 28 24 20 19 19 19 18 17 17 17 17 17 16 16 15 16 16 17 18 17 16 21 24 22 20 19 17 14 11 8 8 8 7 7 7 7 7 6 6 6 6 5 5 5 3 3 3 3 5 6 5 5 9 12 13 12 12 11 10 11 12 13 13 14 15 18 21 22 22 21 23 24 22 21 20 22
28 28 27 26 30 32 31 31 29 24 20 19 19 19 18 18 18 17 17 18 17 17 16 16 16 16 17 17 15 16 21 24 22 20 19 17 14 11 8 8 8 7 7 7 6 6 6 5 5 5 4 4 5 6 5 4 3 5 5 4 4 5 8 12 13 12 10 9 9 10 11 12 13 15 18 20 22 21 19 20 22 21 19 19 20
30 30 30 30 32 33 34 34 29 23 20 21 20 19 19 18 18 17 18 18 17 17 17 16 17 16 16 16 14 14 20 24 22 20 18 16 14 10 8 8 8 7 7 6 6 5 4 4 4 4 3 3 5 7 7 6 4 5 5 5 5 5 7 13 16 15 13 11 11 11 12 13 14 16 20 22 24 22 18 18 20 20 19 19 20
29 32 34 35 36 36 35 34 29 23 21 22 21 20 19 19 18 18 19 19 18 18 18 17 18 17 16 16 13 15 21 24 22 20 19 16 13 9 8 8 8 7 7 6 5 4 4 4 4 3 2 2 4 6 7 7 6 6 6 6 7 7 9 12 14 16 16 15 16 16 16 17 17 17 19 22 24 22 19 19 21 20 20 19 19
28 30 32 35 38 39 38 37 33 26 23 22 22 21 20 20 20 20 20 20 20 19 18 18 19 19 20 18 15 17 23 24 22 21 20 16 13 9 8 8 8 7 7 6 5 4 4 5 6 4 1 1 4 5 6 7 6 7 7 7 8 9 11 12 13 15 16 15 16 17 17 18 17 15 16 19 22 20 17 18 21 20 19 19 19
29 28 31 32 33 34 35 36 33 28 25 24 23 22 21 21 20 20 20 20 20 20 21 23 24 25 25 23 19 20 23 24 23 21 20 17 13 9 8 8 8 7 7 6 5 5 4 4 4 4 2 3 4 5 6 6 6 6 6 7 7 9 11 12 12 14 14 13 14 15 15 16 15 14 15 17 18 18 17 17 18 19 19 19 20
24 27 30 29 28 30 29 27 26 24 23 22 22 23 23 22 22 21 21 23 24 25 26 27 27 27 26 24 22 21 22 24 22 20 19 17 14 10 7 7 8 7 7 6 6 6 5 3 2 2 2 3 4 4 5 6 6 5 5 6 6 8 11 11 11 13 13 12 13 13 14 15 15 15 16 16 17 18 17 17 17 17 17 18 19
24 29 29 26 32 35 28 23 23 22 22 23 23 25 27 27 26 26 26 26 27 26 24 22 22 24 24 25 23 20 20 22 22 20 19 17 15 11 7 6 7 7 6 7 6 6 6 5 3 1 1 3 3 3 4 5 5 4 4 5 5 7 10 10 10 12 12 12 13 13 14 15 16 16 17 17 17 18 18 17 17 17 16 17 18
29 33 28 25 31 30 22 23 26 25 25 27 26 25 25 25 27 27 25 24 24 22 20 19 19 20 21 22 22 19 18 20 21 20 19 17 15 13 9 6 7 7 6 6 6 5 5 6 4 3 1 2 2 3 3 4 4 3 3 5 6 8 10 9 9 10 11 12 13 12 14 15 15 17 18 17 17 18 18 18 17 17 17 16 15
32 32 26 23 28 26 23 27 30 28 28 27 23 22 22 22 23 23 21 21 22 21 20 19 19 19 19 19 20 18 18 20 21 21 19 17 16 15 10 7 7 7 5 5 6 5 4 5 5 4 1 1 1 2 2 2 3 3 4 5 6 9 9 7 8 9 10 11 12 12 13 14 15 16 18 17 18 19 20 19 18 17 17 15 14
32 30 25 23 25 25 24 26 26 25 27 25 21 20 20 20 20 20 19 20 21 20 20 20 20 20 20 19 19 18 18 19 21 23 21 19 17 16 13 10 9 8 6 5 4 5 5 6 5 4 1 1 1 0 1 1 1 3 4 5 7 8 7 6 7 8 8 10 11 12 13 14 15 16 17 17 17 18 20 20 18 18 18 16 14
32 32 29 25 23 22 22 22 22 23 25 23 21 20 20 20 19 19 19 20 20 20 20 20 20 20 20 19 19 19 18 17 20 23 23 20 19 17 15 13 11 11 9 7 5 6 7 7 5 4 3 2 1 1 1 2 3 3 4 5 5 5 5 6 7 7 8 9 10 11 13 14 15 15 15 16 16 17 19 20 19 19 19 17 16
31 31 27 24 22 22 21 21 21 23 23 21 19 20 20 19 18 19 20 20 19 20 20 20 20 19 19 19 18 19 18 16 17 21 24 23 21 19 17 15 14 13 12 10 9 9 9 8 6 5 5 4 3 3 4 4 4 4 4 4 3 4 4 5 5 5 7 8 9 10 12 13 14 15 15 15 16 17 18 19 19 18 19 18 17
26 26 23 22 22 22 22 22 22 22 23 21 19 18 20 19 18 19 20 19 19 19 19 20 20 19 19 19 18 18 18 17 16 18 21 22 21 19 19 17 16 15 14 12 11 11 10 9 8 7 6 6 5 6 7 6 5 4 4 3 3 2 3 4 4 4 5 7 7 9 10 12 13 14 15 16 17 17 17 18 18 18 19 18 17
23 23 21 22 22 21 21 23 23 22 22 21 19 18 19 19 18 19 20 19 19 20 19 19 20 19 18 19 18 18 18 18 17 17 19 19 18 17 17 17 16 15 14 13 11 10 10 9 9 9 9 8 7 8 7 7 6 5 5 4 4 4 3 3 2 2 4 6 6 8 10 11 13 14 15 16 17 16 17 17 18 18 18 18 17
21 20 20 21 20 19 20 21 21 21 21 21 19 18 19 19 17 17 18 18 18 18 18 18 18 18 17 17 18 18 18 18 18 18 19 19 18 16 15 15 14 14 15 14 11 9 10 10 10 11 11 10 9 8 7 6 6 6 5 4 5 5 4 3 2 2 4 5 6 7 9 10 12 13 14 16 16 16 16 17 17 17 18 18 18
19 20 23 24 22 19 19 20 20 19 21 20 18 17 18 19 18 16 16 18 19 18 17 17 17 16 15 15 17 17 16 17 18 19 21 22 21 19 17 16 15 14 15 16 13 10 9 11 11 11 11 9 8 7 6 6 5 5 5 5 5 4 3 3 3 3 4 5 6 8 8 9 11 12 14 15 16 15 15 16 16 16 17 18 18
21 21 23 26 27 23 20 20 19 18 19 20 18 16 17 18 18 17 15 17 20 21 19 18 17 17 15 13 15 17 16 15 17 19 21 22 23 22 19 18 17 15 14 15 14 11 10 11 11 11 10 9 8 7 7 6 6 6 5 5 5 4 4 4 3 4 6 6 7 8 8 9 10 12 13 14 15 15 16 16 16 16 16 17 18
22 21 21 24 28 24 19 18 19 18 18 19 17 16 17 16 16 16 16 16 19 22 22 20 19 19 17 13 13 16 18 16 15 16 17 19 21 21 20 19 18 17 15 14 13 12 11 12 12 11 11 9 9 8 8 7 7 6 6 6 5 6 5 4 4 6 7 7 7 9 9 9 10 11 12 13 14 14 15 15 15 15 16 16 17
20 20 20 23 26 24 19 18 18 17 18 18 17 16 17 16 15 15 15 14 16 19 21 21 20 19 19 16 13 14 17 16 13 12 14 16 18 20 20 19 18 17 16 14 13 13 13 12 12 12 11 10 9 9 8 8 7 7 6 6 6 6 5 5 6 8 8 8 9 10 10 10 11 11 12 13 14 14 14 15 15 15 15 16 16
19 20 24 25 26 23 20 19 18 17 16 17 17 16 16 16 14 13 13 13 13 14 17 21 21 19 20 19 17 14 15 15 12 9 9 12 16 18 19 17 17 17 17 15 14 14 14 13 12 12 11 10 9 8 8 8 8 7 7 7 7 7 6 6 7 8 8 9 10 10 11 11 12 12 12 13 14 14 14 14 14 14 15 15 16
21 22 26 27 24 21 20 21 20 18 17 17 17 16 16 15 14 13 13 13 12 10 11 16 19 20 19 18 18 17 15 15 13 9 7 8 11 16 18 16 15 17 17 17 16 15 14 13 12 11 11 10 9 8 8 8 8 8 8 8 8 7 7 7 7 8 9 10 11 12 12 13 12 12 12 13 13 13 14 13 13 14 15 15 15
21 20 24 26 22 19 20 21 21 20 19 18 16 15 15 14 13 12 12 13 12 10 9 10 14 18 19 18 18 18 18 16 14 12 10 8 10 14 16 15 14 15 16 17 17 16 14 13 12 11 11 10 9 9 9 9 9 9 9 9 8 8 8 8 7 8 10 12 13 13 13 13 12 11 11 12 13 13 13 13 13 14 14 15 15
19 18 22 23 20 18 19 19 19 21 22 21 18 17 17 16 14 12 12 13 13 11 10 9 10 14 18 20 20 20 19 17 15 14 13 11 11 14 15 13 13 14 14 15 16 15 15 14 13 12 11 10 10 10 9 9 10 10 9 9 9 9 9 9 10 12 14 15 14 13 12 12 12 11 11 11 12 13 13 13 13 13 14 15 15
20 19 21 22 21 19 18 17 18 21 23 21 18 16 16 16 14 13 13 14 16 14 12 10 11 12 14 17 19 20 19 18 16 16 15 14 15 16 15 13 13 13 13 13 14 14 14 14 13 12 12 11 11 11 10 10 10 10 10 10 10 10 10 11 13 14 14 14 14 13 13 13 12 11 11 11 12 12 13 13 13 13 14 14 14
20 21 23 24 22 18 16 16 18 20 19 18 17 16 16 17 16 16 15 15 17 17 14 12 13 13 12 13 16 19 18 17 16 16 16 18 19 19 17 15 14 14 14 13 13 13 13 13 12 12 11 11 11 11 11 11 11 11 10 10 10 11 11 12 12 12 12 13 14 14 14 13 13 12 12 12 12 12 12 13 13 14 14 14 14
17 20 25 26 22 16 14 16 18 18 17 17 15 16 18 18 17 18 17 15 15 17 16 14 14 14 13 13 16 18 18 17 16 15 15 19 21 21 18 16 15 15 14 14 13 13 13 13 13 12 12 12 12 12 12 11 11 11 11 11 11 12 12 12 13 14 14 14 14 14 14 14 13 13 13 13 13 13 13 14 14 14 14 15 15
16 20 23 24 21 16 14 15 16 17 18 17 15 15 18 18 17 17 18 17 18 19 19 18 18 18 17 17 19 20 19 18 16 14 16 19 21 20 18 17 16 15 14 14 13 13 13 13 13 13 13 12 12 11 12 12 12 12 12 12 12 12 13 13 14 14 14 15 15 15 14 13 13 13 14 15 15 15 14 14 14 14 15 16 16
19 21 23 24 21 16 14 14 14 16 18 17 15 15 17 17 16 18 19 21 22 21 20 20 21 21 21 22 21 20 18 16 13 12 14 16 17 17 16 16 15 14 14 13 12 12 12 12 12 12 12 12 12 12 12 13 13 12 12 12 12 13 13 14 15 15 15 15 15 14 13 14 15 15 16 16 15 14 14 14 14 15 16 15 15
21 22 24 25 23 19 16 15 14 14 15 15 14 14 14 15 15 18 19 20 21 21 21 22 21 20 20 21 20 19 18 17 14 12 12 13 14 15 15 15 14 13 13 13 12 11 11 11 11 11 11 11 11 12 12 12 12 12 12 12 12 13 14 15 14 13 12 12 12 12 13 14 15 14 13 13 12 12 13 14 14 14 14 15 15
20 22 24 24 23 20 18 15 13 12 13 14 13 13 13 13 13 14 15 16 19 21 22 22 21 19 19 19 18 17 17 18 18 16 14 13 14 14 14 14 14 13 12 13 13 12 12 12 13 13 14 14 14 14 14 13 12 13 13 13 13 12 12 12 11 11 11 12 13 13 12 12 12 12 12 11 11 12 13 13 13 13 14 15 15
20 22 23 22 19 17 16 14 12 12 14 14 12 10 11 11 11 12 14 16 19 21 21 20 19 19 18 17 17 16 15 17 19 20 18 17 17 16 15 14 14 13 13 13 13 14 15 15 16 18 19 18 18 17 15 13 13 13 13 12 11 10 10 11 12 13 14 14 12 11 10 10 11 11 11 11 12 12 13 13 13 14 15 15 15
20 21 20 18 15 14 13 13 12 12 12 12 10 10 11 11 10 12 15 17 19 20 20 19 18 18 17 16 15 15 15 16 18 19 18 18 17 16 14 13 12 12 12 13 14 15 16 17 18 18 18 17 16 15 12 10 11 11 11 11 11 12 13 13 13 12 11 10 9 9 9 10 11 11 11 11 12 12 13 13 14 14 15 15 15
18 18 17 15 13 12 12 12 12 12 12 11 10 11 12 12 11 12 15 16 16 17 18 17 16 16 16 15 15 14 15 15 16 16 16 15 15 14 13 12 12 13 14 15 15 16 16 16 15 14 14 15 14 12 10 8 8 10 12 13 13 13 13 11 9 7 8 8 9 9 9 10 10 10 11 11 12 12 13 14 14 14 15 15 16
17 18 17 15 13 11 10 11 13 13 12 11 11 11 13 14 11 10 12 13 14 15 16 15 15 15 15 15 14 14 14 14 15 15 14 14 14 13 13 13 13 13 14 15 16 15 13 11 11 12 13 14 13 11 10 10 10 11 13 12 10 9 8 7 6 7 8 8 8 8 8 9 9 10 11 11 12 12 13 13 14 14 15 16 17
16 18 18 16 13 11 11 12 13 12 11 11 12 12 12 12 11 9 10 13 14 15 16 15 15 15 14 13 13 13 13 13 14 14 14 14 14 13 13 13 13 13 13 13 12 11 10 11 13 13 13 13 12 11 11 11 11 10 9 8 6 6 6 6 6 7 8 8 7 7 7 8 9 10 11 11 11 11 12 13 14 15 15 16 16
13 14 14 13 12 11 10 11 11 10 9 10 11 11 11 12 12 11 13 14 15 15 15 14 14 13 13 12 12 12 12 13 13 12 12 13 13 12 12 12 12 11 9 9 10 11 13 14 14 13 12 11 10 10 10 9 8 6 5 4 4 5 6 7 7 8 9 9 7 6 7 9 9 10 10 10 10 11 12 12 13 14 15 15 16
11 10 10 10 9 9 9 9 9 9 9 9 9 10 11 12 12 13 14 13 12 12 12 13 13 13 13 12 12 11 11 11 11 11 11 12 12 11 10 9 8 7 8 10 11 13 12 12 10 10 9 9 8 8 6 5 4 2 2 3 4 5 6 7 8 9 10 10 8 7 8 9 9 9 9 9 10 11 12 12 13 13 14 14 14
Wind_Direction
165 161 160 164 163 161 159 163 168 167 165 164 159 156 157 154 150 149 147 145 144 143 143 143 141 136 132 130 127 127 128 127 126 125 121 119 116 114 113 111 107 104 102 99 97 94 89 84 79 74 70 68 63 57 53 48 46 44 40 37 33 23 12 5 354 346 349 351 347 346 346 344 344 346 344 340 338 338 339 341 341 340 341 344 343
168 163 158 163 164 160 159 164 168 167 165 163 159 159 159 155 153 148 143 144 145 144 145 143 141 138 134 132 131 132 133 131 130 128 125 122 119 118 118 115 111 107 105 104 100 97 91 85 81 75 69 68 63 57 54 50 46 44 39 33 26 19 10 359 350 342 342 346 348 346 346 347 346 348 348 343 338 338 340 343 344 341 341 344 344
167 162 156 159 162 161 163 166 168 166 162 160 160 161 161 157 151 144 141 144 145 145 146 144 142 139 136 135 134 135 135 133 132 130 128 125 122 122 122 117 115 113 111 109 104 99 92 84 80 74 70 69 64 57 54 50 46 40 34 29 17 7 1 353 346 341 338 341 346 347 347 348 347 348 349 345 340 340 342 344 344 343 343 346 345
165 159 154 156 159 163 164 166 167 164 161 161 162 163 162 155 147 143 143 145 145 146 146 144 144 141 138 138 138 138 138 135 134 131 129 128 126 126 124 119 118 117 113 110 103 99 93 84 78 74 71 69 63 59 54 49 45 37 26 20 12 1 353 351 347 343 338 338 344 348 347 348 348 349 349 347 345 344 344 344 345 345 345 346 347
161 157 152 154 159 163 165 166 166 164 163 165 164 164 163 156 149 147 145 146 147 147 147 146 145 143 141 142 142 141 140 137 135 133 131 131 130 128 125 122 119 116 112 108 102 97 92 84 76 71 69 66 63 58 51 47 41 32 24 18 9 360 354 354 352 349 345 343 346 348 350 350 349 350 351 350 347 346 345 344 346 348 348 347 346
160 157 155 158 161 162 164 166 166 165 167 168 167 166 164 158 153 151 148 148 149 148 148 148 146 145 145 145 145 143 141 139 137 136 135 134 133 129 126 124 121 117 112 107 102 97 91 83 74 68 65 62 59 53 45 43 37 26 19 14 7 1 358 359 357 354 352 351 350 350 352 353 351 351 353 352 349 347 346 344 346 350 350 348 346
159 160 161 162 160 160 161 163 166 167 167 168 168 168 166 158 153 151 150 151 151 151 151 148 146 147 146 146 146 143 141 140 139 139 139 138 136 132 130 128 123 118 113 107 103 97 88 81 71 66 64 61 56 46 35 32 30 25 19 11 7 4 3 2 359 358 357 357 356 354 353 353 353 352 351 351 350 350 349 345 345 349 350 350 348
161 162 164 162 160 162 163 161 164 166 167 168 169 168 164 159 153 150 152 154 153 153 152 148 147 147 146 146 145 143 142 142 143 144 143 141 138 135 133 131 126 122 116 110 104 96 88 81 74 71 71 70 67 58 50 45 30 23 20 13 9 8 7 5 2 1 1 360 359 357 354 354 354 352 351 353 352 351 351 347 344 346 348 350 350
159 160 160 156 158 163 164 163 166 170 170 170 169 167 164 160 154 151 153 155 155 154 153 150 148 147 147 146 145 145 145 145 148 149 147 144 141 139 137 134 130 125 120 114 107 98 91 84 80 81 79 75 72 65 62 61 53 38 25 17 13 11 9 7 6 4 1 2 2 358 355 357 356 354 354 354 350 346 346 347 346 346 348 350 353
152 152 149 149 157 164 167 170 172 171 169 169 167 165 163 159 154 154 156 156 156 155 153 150 149 149 148 148 148 148 148 153 156 154 151 148 145 142 141 137 133 129 124 117 110 103 97 90 84 80 73 67 64 61 59 57 54 49 38 27 22 17 13 9 8 5 1 2 3 360 358 358 357 356 354 350 346 343 346 349 346 346 350 352 353
146 146 147 152 161 168 172 174 172 169 168 168 167 165 162 158 156 157 158 157 157 156 155 152 151 152 151 151 152 151 156 164 163 157 153 150 146 145 143 138 135 132 127 122 116 109 104 98 86 75 69 64 54 46 47 49 50 49 45 38 33 29 22 15 9 3 0 2 3 1 360 356 356 357 354 348 345 344 345 348 347 347 353 355 354
153 155 158 159 164 170 173 172 170 169 169 167 164 162 160 159 159 159 159 159 159 158 157 155 154 155 156 157 157 156 165 170 166 160 157 150 144 146 143 138 137 133 128 126 119 114 110 102 91 81 84 85 63 34 35 40 44 46 43 38 35 34 33 28 19 7 357 356 360 3 1 355 354 357 355 347 342 341 343 347 350 349 351 355 354
163 163 163 162 165 170 173 172 171 170 167 163 161 161 161 162 162 162 161 161 161 160 158 157 156 158 159 160 160 159 165 169 167 164 161 152 143 143 143 138 137 132 127 123 119 118 115 107 98 84 76 69 55 34 20 21 27 31 29 25 22 23 26 26 21 13 2 353 356 1 360 356 354 354 352 346 341 341 342 345 349 349 349 352 352
168 166 162 161 166 170 172 172 171 167 163 161 162 163 164 164 164 163 162 162 163 161 159 158 159 161 162 163 163 161 165 169 168 167 167 157 142 139 141 139 134 129 127 121 115 115 112 107 101 89 72 55 51 56 32 6 7 16 21 22 19 20 21 19 15 11 4 355 354 355 355 355 354 350 349 349 346 343 341 342 345 346 346 347 347
169 166 162 163 167 170 172 172 167 162 161 164 166 166 166 165 165 164 164 164 164 162 162 162 163 164 165 165 163 163 169 171 169 170 172 164 146 135 138 142 136 131 130 122 114 114 109 103 99 90 76 52 56 65 57 33 12 10 17 20 17 21 19 19 23 23 15 6 359 354 354 359 2 359 357 358 355 346 339 342 344 343 343 346 349
168 167 168 171 171 172 173 172 166 162 165 167 168 168 166 165 165 164 164 166 166 164 164 163 163 163 164 165 164 167 173 174 172 174 177 170 152 139 143 147 140 138 138 129 123 119 107 102 99 94 84 49 47 58 62 59 31 12 22 25 23 27 12 11 20 23 22 23 19 17 18 17 16 12 6 6 4 354 344 347 350 347 348 351 354
169 172 174 177 177 175 175 174 170 167 167 168 168 168 167 165 165 165 166 167 167 166 164 161 161 160 159 162 166 171 176 177 176 179 181 172 154 148 156 152 143 147 148 141 135 128 119 122 109 90 70 46 51 55 61 64 41 18 26 27 25 29 16 6 8 10 13 17 14 13 15 12 12 10 3 5 7 360 351 353 353 351 352 354 356
170 173 175 177 178 178 180 180 177 171 168 169 169 168 167 166 167 168 169 167 164 163 160 157 159 159 160 163 170 175 178 180 180 183 184 172 156 157 165 155 148 154 154 150 151 142 129 127 117 110 119 53 62 63 63 64 43 17 19 21 19 21 13 4 1 0 4 6 0 358 360 358 360 1 356 359 3 1 356 353 351 350 352 354 356
174 174 175 174 174 176 179 181 179 173 171 172 170 167 167 167 168 169 168 163 161 160 161 163 165 168 169 171 174 177 180 181 181 184 185 175 162 164 169 159 156 162 161 159 163 156 140 121 113 119 119 81 70 69 68 67 49 20 12 16 18 14 5 359 354 352 352 350 350 353 355 354 355 356 355 358 1 1 359 353 350 350 349 351 355
174 174 174 170 169 173 174 174 174 172 171 170 167 167 168 167 167 168 168 168 169 170 171 173 173 174 175 174 173 177 182 182 181 182 185 180 171 169 173 167 165 168 170 171 167 165 164 152 132 122 99 85 82 78 73 69 58 34 14 15 15 5 1 357 348 343 342 342 348 355 358 358 358 358 357 359 1 1 360 355 352 351 346 346 354
170 173 174 172 174 177 173 168 169 170 171 172 171 174 178 177 176 176 175 175 175 173 174 175 175 178 180 178 176 179 184 184 183 183 184 183 177 173 171 174 173 172 178 183 178 172 171 168 178 192 106 95 93 90 80 66 59 42 8 13 16 4 4 360 343 340 346 350 353 358 360 360 1 360 358 357 359 358 356 354 353 350 347 348 350
171 173 175 174 175 173 168 170 174 174 177 179 176 176 178 177 176 175 175 174 173 173 175 178 179 182 184 184 185 189 191 189 190 190 189 188 185 179 172 177 184 181 183 189 188 181 170 167 187 205 151 115 113 104 88 63 55 35 355 5 10 6 10 3 344 346 356 358 357 359 0 1 2 1 359 357 356 354 352 350 348 346 346 347 346
175 174 171 171 173 171 170 176 178 176 178 178 171 167 167 167 168 171 173 174 174 177 181 184 184 185 187 189 193 197 197 195 198 199 196 194 195 189 182 182 188 191 199 200 192 188 175 173 194 208 167 125 132 106 86 57 36 2 347 1 9 11 11 358 348 355 360 360 359 360 1 2 1 1 360 355 352 351 350 349 347 346 347 346 343
175 172 169 168 170 170 171 173 172 171 173 170 164 162 163 164 167 173 175 175 176 179 183 186 187 188 190 193 195 198 197 197 204 207 203 201 203 201 197 198 200 205 219 223 203 193 186 186 202 220 206 181 223 164 88 48 2 324 332 357 13 12 3 353 358 3 1 3 5 3 2 2 1 359 356 351 350 351 351 349 348 350 351 348 345
173 173 172 169 165 164 166 164 163 165 167 165 163 164 166 167 171 175 176 176 178 181 184 187 190 191 193 194 196 196 195 195 203 209 208 205 206 207 208 212 214 215 221 227 219 209 204 205 219 237 236 248 284 302 328 333 318 311 337 5 13 359 351 358 6 7 7 10 8 4 3 1 359 357 353 350 353 355 353 351 351 352 353 351 350
172 171 169 166 164 162 162 160 161 164 166 168 169 170 171 172 175 176 177 179 182 183 184 188 190 192 194 195 194 193 193 191 195 204 207 207 208 212 215 217 220 222 225 228 227 223 220 223 232 239 241 247 247 235 245 264 281 307 339 359 351 334 346 4 6 6 12 13 7 5 3 357 354 354 354 355 359 359 356 353 352 353 354 352 351
167 168 166 164 164 163 161 162 164 165 167 171 175 176 177 178 179 179 181 182 184 185 185 187 190 192 193 194 192 189 190 190 188 193 199 203 206 211 215 217 221 224 226 228 229 227 226 228 231 236 243 244 233 226 229 236 252 277 288 284 286 301 343 6 8 8 8 4 1 2 358 352 350 352 355 359 360 359 357 355 353 354 354 352 353
165 166 165 163 164 165 165 166 166 167 170 175 179 180 181 182 182 184 185 185 185 186 187 188 192 194 192 191 189 187 189 191 190 189 191 194 197 202 206 210 214 218 220 220 219 216 216 221 228 231 233 234 231 228 228 229 234 244 254 263 265 260 282 323 334 346 355 352 352 354 353 351 350 349 351 355 355 355 355 355 353 354 355 355 357
163 160 161 163 164 167 169 169 168 170 174 178 181 183 185 186 187 188 190 190 188 188 189 190 193 195 193 191 189 188 190 193 193 190 189 190 191 192 197 202 204 209 212 210 204 201 206 214 220 221 221 223 226 227 226 227 231 234 237 252 262 257 263 284 288 327 348 340 338 344 346 346 346 345 346 349 350 350 352 352 352 353 355 357 359
160 161 165 169 169 168 169 171 171 171 174 178 180 180 183 187 188 188 191 193 193 191 191 193 194 194 195 194 193 193 194 195 194 194 196 197 194 191 193 197 198 204 210 208 205 209 215 217 220 222 221 222 224 227 229 232 240 243 235 235 248 254 261 273 285 319 325 313 318 331 335 337 341 343 344 344 344 345 348 349 349 351 353 355 357
171 174 173 174 176 174 171 172 174 174 178 182 181 176 176 182 186 188 190 194 197 197 197 196 194 193 193 193 193 196 195 194 198 204 208 209 206 200 199 199 199 203 210 209 210 221 228 226 226 227 226 227 227 228 232 232 235 243 244 239 239 241 248 262 282 302 304 302 309 319 322 328 334 336 337 336 333 336 341 343 344 346 349 351 352
176 180 176 175 177 176 170 170 173 174 178 184 183 178 175 178 184 191 195 199 202 203 202 202 200 196 195 190 187 193 198 198 204 212 216 216 213 211 211 211 209 211 213 211 215 225 229 228 231 231 229 230 230 229 232 234 232 237 243 241 238 237 243 259 278 289 298 303 309 312 314 318 322 323 324 324 324 327 334 336 337 340 343 344 346
175 175 173 172 176 177 172 170 173 175 179 184 186 185 184 182 183 189 196 205 210 209 209 211 209 205 203 198 189 194 203 205 206 211 213 213 214 214 214 216 216 216 216 216 221 229 231 230 232 231 229 230 230 227 230 233 234 239 242 240 239 241 244 257 271 279 287 292 295 300 305 309 313 316 316 318 320 324 327 328 331 335 338 338 340
177 177 178 176 177 179 178 174 175 179 182 184 185 185 186 187 185 180 180 189 203 211 215 218 218 215 213 210 205 202 202 198 193 192 196 204 210 211 211 214 215 216 217 219 223 230 234 234 234 235 234 234 232 230 231 233 234 238 241 240 242 246 249 258 268 277 287 292 295 302 307 309 311 313 312 313 315 317 320 323 326 330 333 333 334
183 185 186 183 178 177 178 178 178 179 181 182 182 183 184 183 180 176 174 176 182 194 208 219 223 222 218 214 211 208 199 189 187 190 191 196 202 203 204 208 213 216 219 223 227 231 236 236 236 237 236 235 234 232 231 233 235 236 237 239 243 249 256 263 272 282 294 300 303 306 306 305 305 305 305 307 310 311 315 319 322 325 327 327 328
184 184 188 187 183 178 178 178 177 177 178 177 176 177 176 174 171 174 176 173 172 182 197 211 222 224 220 214 211 208 203 200 201 206 209 209 204 199 198 202 211 217 220 223 226 231 236 239 239 239 238 237 236 234 232 234 236 236 239 243 247 253 259 266 277 288 296 300 301 301 298 297 298 300 299 303 308 310 312 317 319 318 317 315 315
185 186 188 188 186 183 182 180 180 183 183 179 174 172 173 172 174 177 177 169 167 181 198 200 202 212 216 214 211 209 210 214 219 221 223 222 214 205 203 208 216 221 223 224 225 227 232 235 238 239 241 240 238 237 238 238 237 238 240 244 248 254 262 272 282 290 296 298 298 296 293 292 293 294 293 295 302 307 311 315 315 313 310 307 305
196 198 192 186 184 186 187 183 185 187 184 179 176 174 173 176 178 178 175 169 167 175 190 194 193 201 209 212 214 216 217 221 226 228 228 223 214 208 209 215 223 226 229 229 228 228 231 234 235 237 240 240 240 241 241 241 241 242 243 244 249 256 265 274 280 285 290 293 292 293 296 297 297 297 295 294 295 299 303 305 306 306 306 306 306
200 201 196 188 184 185 183 180 181 183 181 180 180 178 177 180 182 181 180 176 173 176 182 187 196 204 204 203 211 217 219 221 223 223 223 222 217 210 210 216 223 228 232 234 233 233 235 236 236 238 240 241 241 243 243 244 245 247 248 251 255 259 265 273 280 284 289 292 294 296 297 298 299 300 299 297 296 295 296 296 295 295 296 299 303
193 196 195 190 185 181 178 176 177 177 177 179 180 179 182 185 187 187 187 184 180 180 179 179 192 203 203 202 211 216 216 217 217 213 215 220 218 212 210 216 222 225 230 233 235 236 237 238 241 243 244 244 244 245 246 248 249 250 253 256 258 262 268 275 280 286 291 293 294 294 291 290 292 294 293 294 295 294 292 290 290 289 290 292 295
188 191 192 190 186 182 179 179 179 179 180 180 178 179 184 187 187 188 190 190 188 186 183 183 192 201 203 210 221 224 221 219 217 210 211 218 218 213 213 218 222 225 228 231 234 237 239 242 245 246 246 247 247 248 251 254 256 257 258 259 260 265 271 275 279 284 287 287 287 287 285 284 285 287 289 293 295 292 290 290 292 295 298 298 298
190 189 188 187 185 181 177 178 180 182 184 184 183 184 186 189 191 195 199 200 199 195 189 188 194 201 207 215 225 228 223 217 212 207 208 214 217 216 217 221 225 227 228 230 233 238 241 244 246 247 248 251 253 255 259 260 260 259 259 260 263 268 272 277 281 284 284 283 282 282 280 281 285 289 293 294 293 291 292 296 299 301 303 303 303
192 189 187 186 185 184 181 179 177 178 182 185 186 187 188 191 197 201 205 206 206 202 199 197 199 204 210 216 221 223 219 211 207 208 210 214 219 224 228 231 231 231 231 234 236 238 239 242 243 246 250 255 257 259 261 261 260 259 260 262 266 270 274 280 285 287 285 284 282 282 283 286 290 294 295 293 292 294 296 298 300 301 303 305 305
188 186 186 184 184 187 185 180 175 179 185 187 187 186 188 191 194 197 201 206 208 209 210 210 209 208 210 213 216 218 218 216 217 221 225 230 236 238 237 236 235 233 233 237 238 237 238 243 248 254 260 263 264 264 265 263 261 263 265 266 268 272 277 282 285 284 282 282 284 289 293 294 294 296 298 298 300 301 300 300 302 303 304 305 304
185 184 182 179 180 183 183 179 179 184 189 191 188 185 187 189 189 192 200 209 215 216 216 217 215 214 215 218 220 221 222 222 226 231 237 243 248 248 243 240 240 238 239 242 247 250 254 259 264 267 268 267 266 266 266 263 261 263 267 270 272 274 274 273 274 277 282 287 293 300 304 304 304 305 306 307 309 307 304 305 306 305 303 302 301
183 181 177 173 172 173 173 175 178 179 182 182 179 179 185 188 189 198 208 216 221 221 219 219 219 217 217 221 226 228 227 228 234 242 247 248 249 247 242 240 241 245 251 257 262 266 268 269 270 269 267 265 264 262 260 258 260 262 262 260 260 262 265 269 276 286 295 302 307 310 310 309 311 312 311 311 311 310 309 307 306 304 303 303 301
179 176 171 165 161 161 164 170 175 176 178 179 179 185 192 194 195 206 215 219 221 221 219 218 218 218 221 226 232 234 234 235 238 243 243 241 238 239 242 245 250 256 264 267 268 271 273 272 269 264 259 257 257 254 248 243 244 251 255 257 259 265 272 278 287 297 305 309 314 317 318 316 315 313 313 314 312 311 310 310 308 307 306 306 305
177 176 174 171 165 160 161 171 179 181 182 183 184 191 199 200 198 205 213 216 218 219 218 219 221 226 231 236 238 237 236 234 231 229 229 231 236 243 251 257 261 264 268 270 271 274 275 270 261 254 251 250 248 241 236 233 233 242 254 263 268 274 283 292 300 306 312 321 327 326 321 316 313 313 314 314 312 312 312 312 312 311 310 309 308
173 176 176 174 173 169 168 175 180 180 179 181 183 188 196 199 195 197 207 214 219 222 225 228 233 237 241 243 240 234 228 224 221 221 226 236 245 251 255 261 267 271 272 270 270 268 261 252 248 247 246 245 241 232 229 232 237 242 253 265 277 290 302 314 321 322 324 331 334 328 320 316 316 317 318 316 314 314 315 314 313 313 311 309 309
161 167 171 173 175 177 176 178 179 177 174 176 178 183 191 197 199 205 214 220 224 227 229 232 236 238 238 234 227 219 214 215 221 229 239 248 254 258 263 270 274 273 264 253 248 248 247 245 244 241 237 235 233 231 228 229 233 239 253 278 305 319 325 329 330 329 331 338 341 333 325 323 322 321 322 321 319 319 319 317 315 315 312 310 310
149 155 161 163 166 167 167 167 169 167 165 169 176 184 193 200 205 212 219 221 222 225 229 232 233 233 229 222 214 212 216 225 236 246 253 258 261 265 269 271 264 248 236 233 236 239 240 238 235 229 223 219 217 215 215 217 225 247 292 319 329 330 330 332 334 335 339 346 348 337 329 330 331 328 327 328 328 326 324 321 319 317 315 313 315
Height
799 801 803 805 808 812 816 818 820 823 825 827 828 831 834 835 836 838 840 841 843 844 846 848 850 851 852 854 855 856 857 858 860 861 862 863 864 865 867 868 868 869 869 870 870 871 870 870 869 869 869 868 868 867 866 866 865 864 864 863 863 863 862 860 858 855 853 852 850 847 845 842 838 836 832 828 823 820 817 814 811 807 804 800 797
797 800 801 804 808 811 814 817 819 822 824 826 828 831 834 835 836 838 839 842 843 845 847 848 850 852 853 854 855 857 858 859 860 861 863 864 865 867 868 869 869 870 871 871 871 871 871 871 870 870 870 869 868 868 867 867 866 866 865 865 864 864 863 861 859 856 854 851 849 847 844 842 839 836 833 828 823 819 817 814 811 807 804 801 797
797 799 801 804 807 811 814 816 819 821 822 825 828 831 834 835 836 838 839 842 844 845 847 849 851 852 854 855 856 857 859 860 861 862 863 865 866 868 869 869 870 871 872 872 872 872 872 872 871 871 870 870 869 869 868 868 868 867 866 866 865 864 863 862 860 857 855 852 849 847 844 842 839 836 833 830 825 820 817 814 811 808 804 801 798
797 799 800 804 807 811 814 816 818 820 821 824 828 831 833 834 836 838 840 842 844 846 847 849 851 853 854 855 856 858 859 860 862 863 864 866 867 869 870 870 871 872 873 873 873 873 873 872 872 871 871 870 870 869 869 869 868 868 867 866 866 865 863 862 860 858 855 852 850 848 845 842 839 836 833 830 825 821 817 814 811 808 805 801 798
796 798 801 804 807 811 814 816 818 819 820 824 827 830 832 834 835 837 840 842 844 846 848 849 851 853 854 856 857 858 860 861 862 864 866 867 868 870 870 871 872 873 873 873 873 874 873 873 873 872 871 871 870 870 870 869 869 869 868 867 866 865 863 861 860 858 856 853 850 848 846 843 840 837 833 829 825 821 817 814 811 808 805 802 798
795 798 801 804 807 811 813 815 816 818 820 823 826 829 831 833 835 838 840 842 844 846 848 849 851 853 854 856 857 859 860 862 863 865 867 868 870 871 871 872 873 873 874 874 874 874 874 874 873 872 872 871 871 871 870 870 870 869 869 867 866 864 862 861 859 857 856 853 851 848 846 843 841 837 834 830 826 821 817 813 811 808 806 802 798
794 797 801 804 807 809 812 814 816 818 820 823 826 829 831 833 836 838 840 842 844 846 847 849 851 853 854 856 858 859 861 862 864 866 868 869 870 871 872 873 874 874 874 874 874 875 874 874 874 873 872 872 872 872 871 871 871 870 869 868 866 864 862 860 859 857 855 853 851 849 847 844 842 838 835 832 828 823 819 814 810 807 805 803 799
793 796 800 803 805 808 811 814 816 818 821 823 826 829 831 834 836 839 841 842 844 846 847 849 851 853 854 856 858 859 861 863 865 867 869 870 871 872 873 874 874 874 875 875 875 875 875 875 874 873 873 872 872 872 872 871 871 871 870 868 867 865 863 861 859 857 855 854 852 850 848 845 843 839 836 831 827 824 821 817 813 809 806 803 800
792 795 799 801 804 806 810 814 816 818 820 823 826 829 831 834 837 839 841 842 844 846 847 849 851 852 854 856 858 860 862 864 866 868 869 870 872 873 874 874 875 875 875 875 875 875 875 875 874 873 873 872 872 872 872 872 871 871 870 869 867 865 863 862 860 858 856 854 853 851 849 846 844 840 836 832 829 825 822 819 816 811 808 804 800
791 794 797 800 803 806 810 813 815 818 820 823 826 829 832 835 837 839 841 843 844 846 848 849 851 852 854 856 858 860 862 864 866 868 869 870 872 873 874 875 875 875 875 875 875 876 876 875 874 874 874 873 873 873 873 872 871 871 870 869 868 866 864 863 861 860 858 855 854 852 850 848 845 842 839 835 832 828 823 820 816 813 809 805 800
790 794 796 799 802 805 809 812 815 817 820 823 826 829 832 835 837 839 841 842 844 846 847 849 850 852 854 856 858 860 862 863 865 867 868 870 872 873 874 874 875 875 875 875 875 876 876 876 875 875 875 874 874 874 873 873 872 871 870 869 868 867 865 864 863 861 859 857 855 854 852 849 847 845 842 838 833 829 825 821 818 814 810 806 801
790 793 796 798 801 804 808 811 814 817 820 823 827 830 832 834 836 838 840 842 844 845 847 849 850 852 854 855 858 860 861 862 864 866 868 869 871 873 874 874 874 875 875 875 875 876 876 876 876 876 876 875 876 876 875 874 872 871 870 869 868 867 866 865 864 863 861 859 857 855 853 851 849 846 843 839 835 830 827 823 820 816 813 808 804
790 792 795 798 800 803 808 811 814 818 821 824 827 829 832 834 836 838 839 841 843 845 847 849 850 852 854 856 858 859 860 862 864 866 867 869 870 872 873 874 874 875 875 875 875 876 876 877 877 876 876 876 876 877 876 875 873 872 871 870 869 868 867 865 864 863 861 860 858 856 855 853 850 848 845 841 837 832 828 824 821 818 815 811 807
790 792 795 798 800 804 808 811 814 818 821 825 827 829 831 833 835 837 839 841 843 845 847 849 851 853 855 857 859 860 861 862 864 865 867 868 869 871 872 873 874 875 875 875 875 875 876 877 877 877 877 877 877 876 876 875 874 872 871 870 870 868 867 866 864 863 862 861 859 858 856 854 852 849 846 842 838 834 830 826 822 819 816 813 809
790 793 795 798 801 804 807 811 815 818 821 824 826 828 830 832 834 836 838 840 843 845 847 849 851 854 856 858 860 861 861 862 864 865 867 868 869 870 872 873 874 875 875 875 875 875 876 877 877 877 878 877 876 875 874 874 874 873 872 871 870 869 868 866 865 863 862 861 859 858 856 854 852 849 846 843 839 836 832 829 825 821 817 813 810
790 793 795 798 800 803 806 810 814 817 820 822 824 827 829 831 833 835 837 840 842 844 847 849 851 854 856 859 861 863 863 863 864 866 867 868 868 870 871 872 873 874 875 875 875 876 876 877 877 878 878 877 876 875 874 873 873 873 872 871 870 869 868 866 864 863 861 860 859 857 855 853 851 848 846 843 840 837 833 830 827 822 818 814 810
789 791 794 796 799 802 805 809 813 816 818 820 822 825 827 830 832 834 836 839 841 843 846 848 851 853 856 858 862 864 864 864 865 866 867 867 868 869 871 872 873 874 875 875 876 876 876 876 877 878 878 877 876 875 874 873 873 872 871 870 870 869 868 866 864 862 861 859 858 856 854 852 850 848 846 844 841 837 834 831 827 823 819 815 811
787 790 792 795 797 800 803 807 810 813 816 818 820 823 825 827 830 832 835 837 839 842 845 847 850 852 854 857 860 863 863 863 864 865 866 867 867 869 871 871 872 874 874 875 876 876 876 875 876 877 877 876 875 874 874 873 873 872 871 870 869 868 867 866 864 863 861 859 857 856 854 852 850 848 846 844 841 838 836 832 829 825 821 817 814
785 788 791 793 796 800 802 805 808 811 814 816 818 820 822 825 828 830 833 836 838 841 843 845 848 850 853 855 858 861 863 863 864 865 866 866 867 868 870 870 871 873 874 874 875 876 876 875 875 876 876 875 875 874 873 873 872 872 871 870 869 868 867 866 864 863 861 859 858 856 854 852 850 848 846 844 841 839 836 834 831 827 823 820 816
786 789 792 794 797 800 803 806 809 812 814 816 817 819 821 823 826 829 832 834 837 840 843 845 847 850 852 854 856 860 862 862 863 864 865 866 866 867 868 869 870 872 873 874 874 875 876 876 875 875 875 875 874 874 873 872 872 872 871 870 869 868 867 865 864 862 861 859 858 856 854 852 850 848 846 844 842 839 837 834 832 829 825 822 819
786 790 794 797 797 799 803 806 809 811 813 815 817 818 820 822 825 828 832 834 837 840 843 846 848 850 852 853 855 859 861 862 862 863 864 865 866 866 867 869 870 871 872 873 873 874 875 875 875 875 874 874 874 873 873 872 872 872 871 870 869 868 866 865 863 862 861 859 858 856 854 852 850 848 846 844 842 839 837 834 832 829 826 824 821
785 789 794 797 797 799 803 805 808 810 812 814 817 819 821 823 826 829 833 835 837 840 843 846 848 850 852 854 856 858 860 861 861 862 863 864 865 865 866 868 869 870 871 872 872 873 874 875 875 874 874 874 874 873 872 872 871 871 871 870 868 867 866 864 863 862 861 859 858 856 854 852 850 848 846 844 842 839 837 834 832 829 827 825 822
785 789 793 795 797 799 802 804 806 809 812 815 818 820 823 825 827 830 832 835 837 840 842 845 847 850 852 853 855 857 858 859 860 861 862 863 864 865 865 866 868 869 870 871 872 872 873 874 874 874 874 874 873 872 872 871 871 871 870 869 868 867 865 864 863 862 861 859 858 856 855 853 850 848 846 844 842 840 837 834 831 829 827 825 822
785 788 791 794 796 798 801 803 806 809 812 815 818 821 823 826 828 830 831 833 836 838 841 843 845 847 849 851 853 855 856 857 858 859 860 862 863 864 865 866 867 868 869 871 871 872 872 873 873 873 873 873 873 872 871 871 871 871 870 869 868 867 865 864 863 862 861 859 858 856 855 853 851 849 847 845 842 840 837 834 831 829 826 824 821
782 786 789 792 795 798 801 803 806 808 812 815 818 820 823 825 826 828 830 832 834 836 838 841 842 844 846 848 850 852 853 855 856 857 858 860 861 863 864 865 866 868 869 870 871 871 871 872 872 873 873 872 872 871 871 870 870 870 869 868 868 867 866 865 863 862 860 859 858 856 855 853 852 849 847 845 843 840 838 834 831 828 826 823 821
781 784 787 790 794 797 800 802 805 808 811 815 817 819 822 823 825 826 828 829 832 833 836 838 840 842 844 845 847 849 850 852 853 854 856 858 860 861 863 864 865 867 867 868 869 870 870 871 872 872 872 871 871 871 870 869 869 869 868 868 867 867 866 864 863 861 860 858 857 856 855 854 852 850 847 844 842 840 838 835 832 829 826 823 820
780 783 786 789 792 795 798 801 804 807 810 814 817 819 820 822 823 825 826 827 829 831 833 835 837 839 840 842 844 846 848 849 851 852 855 857 858 860 861 863 864 865 867 868 868 869 870 870 870 871 870 870 870 869 869 868 868 867 867 867 867 866 865 864 862 861 860 858 857 855 854 853 852 850 847 844 842 840 838 835 832 829 827 824 820
779 782 785 788 791 794 797 799 802 805 808 811 814 816 818 820 822 823 824 825 826 828 830 832 834 836 837 839 841 843 845 846 848 850 852 854 856 858 860 861 863 864 865 866 867 868 869 869 869 869 869 868 868 867 867 866 866 866 866 866 865 865 864 863 861 860 859 858 856 855 853 852 851 849 847 845 842 840 838 836 833 830 827 824 821
779 782 785 788 791 794 797 799 801 804 806 809 812 814 816 818 820 821 823 824 825 827 828 830 832 834 835 837 838 840 842 843 845 847 849 851 854 856 858 859 861 862 864 865 866 867 867 867 868 867 867 866 866 865 865 864 864 864 864 865 864 863 862 861 860 859 858 857 856 854 853 851 850 849 847 845 842 840 838 836 833 831 828 825 822
778 780 783 787 790 793 796 798 800 802 804 807 809 811 814 816 818 820 821 823 824 826 827 829 831 832 834 836 837 838 839 841 843 845 847 849 852 854 856 857 859 860 862 863 864 865 865 865 865 865 864 864 863 863 863 863 863 862 863 863 863 862 862 861 859 858 858 856 855 854 852 851 849 848 847 845 842 840 838 836 833 831 828 825 822
776 779 782 784 787 790 793 796 798 800 803 805 807 809 812 815 817 818 820 821 823 825 827 828 830 832 833 835 836 837 838 839 841 843 846 848 850 853 854 856 858 859 861 862 864 864 864 863 863 863 862 861 861 861 861 861 861 861 861 861 861 861 861 860 859 858 857 855 854 853 851 850 849 847 846 845 842 840 837 835 833 831 828 826 823
774 777 780 782 785 788 791 793 796 798 801 803 805 807 809 812 815 817 818 820 822 824 826 828 829 831 832 834 835 836 837 839 840 842 845 847 849 851 853 855 857 859 860 862 863 862 862 861 861 860 860 859 859 860 859 859 859 859 859 859 859 859 859 858 858 857 856 854 853 852 850 849 847 846 845 844 842 839 837 835 833 830 828 826 824
772 775 778 781 784 787 789 791 794 796 798 801 803 805 807 809 811 814 817 819 821 823 825 827 829 830 832 834 835 835 837 838 840 842 844 846 848 850 852 854 856 858 859 860 861 860 859 859 858 857 857 857 857 857 857 857 857 857 857 857 857 857 857 857 856 856 855 853 852 851 849 848 846 844 843 842 841 839 836 834 832 830 828 826 823
771 773 775 778 782 785 786 789 792 794 796 799 801 803 805 807 809 812 814 817 820 822 824 826 828 829 831 833 834 835 837 838 840 842 844 845 847 849 851 853 855 856 858 859 859 858 857 856 856 855 855 855 855 855 855 855 856 856 856 856 855 855 855 855 854 854 853 852 850 849 848 846 844 843 841 840 839 837 835 833 831 829 827 825 823
770 772 775 777 780 782 784 787 789 792 795 797 799 801 804 806 808 810 812 815 818 821 823 825 827 828 830 832 834 835 837 838 840 842 843 844 846 847 850 852 853 855 856 856 856 856 855 854 854 853 853 853 853 853 854 854 854 854 854 854 853 853 853 852 852 851 851 850 849 847 846 845 843 841 840 838 837 836 834 832 831 829 827 825 823
769 772 774 777 779 781 782 785 787 789 792 794 797 801 803 804 806 809 811 813 816 820 823 825 827 828 830 831 833 835 837 838 840 841 842 843 845 846 848 850 851 853 853 854 854 854 853 853 852 852 851 851 851 851 852 852 852 852 852 852 852 851 851 850 850 850 849 848 847 846 844 843 841 840 838 836 835 834 832 831 829 828 826 825 822
768 771 773 775 777 780 782 784 786 788 790 792 795 798 801 803 806 809 810 812 815 819 823 826 827 828 829 830 832 834 836 837 839 840 841 842 843 845 846 848 849 850 851 851 851 851 851 851 851 850 850 850 850 850 850 850 850 850 850 850 850 849 849 849 849 848 848 846 845 844 842 841 839 838 836 835 833 832 831 829 828 826 825 823 821
768 770 771 773 776 779 781 784 786 787 789 791 794 797 799 802 805 808 810 811 813 817 821 825 827 829 829 830 831 833 835 837 838 839 840 841 841 843 844 846 846 847 848 848 848 848 848 848 848 848 848 848 848 848 848 848 848 848 848 848 848 848 848 847 847 846 845 844 843 841 840 838 837 836 834 833 831 830 829 828 826 825 823 821 819
767 768 770 772 775 778 781 782 784 787 789 791 794 796 798 801 804 806 809 811 812 814 818 823 827 829 829 830 831 832 834 835 837 837 838 839 839 840 842 843 844 844 845 846 846 846 846 846 846 846 846 846 846 846 846 846 846 846 846 846 846 846 846 845 844 844 843 841 840 839 838 836 835 834 832 831 829 828 827 826 824 822 821 819 817
766 767 768 771 775 778 780 781 784 786 788 791 793 795 798 800 803 805 807 810 811 812 814 818 823 826 828 829 829 831 833 834 835 836 837 837 837 838 839 840 841 842 843 843 844 844 844 844 845 845 845 845 845 845 845 844 844 844 844 844 844 844 843 843 842 841 840 839 838 837 835 834 833 832 830 829 827 826 824 823 821 820 818 816 815
764 765 768 772 775 778 780 782 784 786 788 791 793 795 797 800 801 803 805 807 809 810 812 814 818 822 825 827 827 829 830 831 833 834 835 835 836 837 837 838 839 839 840 840 841 842 842 843 843 843 843 843 843 843 843 843 843 843 843 843 842 842 841 841 840 839 838 837 836 834 833 832 831 830 828 827 825 823 822 820 819 818 816 814 813
762 765 768 772 775 777 780 782 784 786 788 790 793 794 796 798 800 802 804 806 807 809 811 812 815 818 821 823 825 827 828 829 831 832 833 833 834 835 835 836 836 837 837 838 839 840 841 841 842 842 842 842 842 842 842 842 842 841 841 840 840 840 839 838 838 837 836 834 833 832 831 829 828 827 826 824 823 821 820 819 817 816 814 813 811
762 765 768 771 774 777 779 781 784 786 788 790 792 793 795 797 799 801 803 805 807 808 810 812 814 816 818 820 822 824 826 827 829 831 831 832 833 833 834 834 835 835 836 836 837 838 839 839 840 840 841 841 841 841 841 840 840 839 839 838 838 837 836 836 835 834 833 832 831 830 829 827 826 825 824 822 821 820 818 817 815 814 812 811 809
763 766 768 771 774 777 779 781 783 785 787 789 791 792 794 796 798 800 803 805 807 808 810 812 813 815 816 818 820 821 822 824 827 829 830 830 831 832 832 833 833 833 834 835 835 836 837 837 838 838 839 839 839 839 838 838 838 837 837 836 835 835 834 833 833 832 831 830 828 827 827 826 825 823 822 821 820 818 817 815 814 812 811 809 808
764 766 769 772 774 777 779 781 783 785 787 789 791 793 794 796 798 800 802 804 805 807 809 811 813 814 815 816 817 819 820 822 824 826 828 829 829 830 830 831 831 831 832 833 833 834 834 835 835 836 836 836 836 836 836 836 835 835 834 833 833 832 832 831 830 829 828 827 826 826 825 824 823 822 821 820 819 817 815 814 813 811 809 808 806
765 768 770 772 774 776 779 781 783 784 787 789 790 792 794 796 797 799 801 802 804 806 808 810 812 813 813 814 815 817 819 821 823 824 825 826 827 828 828 829 829 829 830 831 831 832 832 833 833 833 833 833 834 834 834 833 833 832 831 831 830 829 828 827 827 826 826 825 825 825 824 823 822 821 820 818 817 816 814 813 811 809 808 806 805
767 769 771 773 775 777 779 780 782 784 786 788 790 791 793 795 797 798 800 802 804 806 807 809 810 811 812 813 814 816 817 819 820 822 823 824 825 825 826 827 828 828 828 829 829 830 830 830 830 831 831 831 831 831 831 831 830 829 828 827 827 826 826 825 825 825 825 824 823 823 822 821 820 820 819 817 816 815 813 811 810 808 807 805 803
767 769 771 773 775 777 779 780 782 784 786 787 789 791 793 794 796 798 799 801 803 805 807 808 809 810 811 812 813 815 816 817 818 819 821 821 822 823 824 824 825 826 826 827 827 828 828 828 828 828 828 828 828 828 828 828 828 826 825 825 825 825 824 824 824 823 823 822 822 822 821 820 819 818 817 816 815 813 812 810 809 807 806 804 802
768 769 771 773 775 777 778 780 782 783 785 787 789 790 792 794 796 798 799 801 802 804 805 807 808 809 810 811 812 813 814 815 816 818 819 820 821 821 822 822 823 824 824 825 825 826 826 826 826 825 825 826 826 826 826 825 825 824 824 824 824 823 823 823 823 822 822 821 821 821 820 819 818 817 816 814 813 812 810 809 807 806 804 802 800
768 770 772 774 775 777 779 780 782 783 785 786 788 789 791 793 795 797 798 800 801 803 804 805 806 807 809 810 811 812 813 814 815 817 818 818 819 819 820 820 821 822 823 823 823 823 823 823 823 823 823 823 823 824 824 824 823 823 823 823 823 823 822 822 822 821 820 820 819 819 819 818 816 815 814 813 812 810 809 808 806 805 803 801 799
769 771 773 775 776 777 779 780 782 783 784 785 787 789 791 792 794 796 797 799 800 802 803 804 805 806 807 808 810 811 812 813 814 815 816 817 817 817 818 819 820 820 820 821 820 821 821 821 821 822 822 822 822 823 823 823 823 823 823 823 822 822 822 821 821 820 819 818 818 818 817 816 815 814 813 812 811 809 808 807 805 804 802 800 798